TimeCST,TemperatureF,Dew PointF,Humidity,Sea Level PressureIn,VisibilityMPH,Wind Direction,Wind SpeedMPH,Gust SpeedMPH,PrecipitationIn,Events,Conditions,WindDirDegrees,DateUTC
12:15 AM,46.4,24.8,43,30.05,10.0,SSW,16.1,-,N/A,,Clear,200,2012-12-14 06:15:00
12:35 AM,46.4,24.8,43,30.04,10.0,South,17.3,-,N/A,,Clear,190,2012-12-14 06:35:00
12:55 AM,44.6,24.8,46,30.04,10.0,South,16.1,-,N/A,,Clear,190,2012-12-14 06:55:00
1:15 AM,44.6,24.8,46,30.04,10.0,South,15.0,20.7,N/A,,Clear,190,2012-12-14 07:15:00
1:35 AM,42.8,24.8,49,30.03,10.0,South,15.0,20.7,N/A,,Clear,180,2012-12-14 07:35:00
1:55 AM,42.8,24.8,49,30.03,10.0,South,15.0,-,N/A,,Clear,190,2012-12-14 07:55:00
2:15 AM,42.8,24.8,49,30.03,10.0,South,17.3,-,N/A,,Clear,190,2012-12-14 08:15:00
2:35 AM,42.8,24.8,49,30.03,10.0,South,16.1,-,N/A,,Clear,190,2012-12-14 08:35:00
2:55 AM,42.8,24.8,49,30.02,10.0,South,17.3,23.0,N/A,,Clear,190,2012-12-14 08:55:00
3:15 AM,42.8,24.8,49,30.02,10.0,South,17.3,-,N/A,,Clear,190,2012-12-14 09:15:00
3:35 AM,42.8,24.8,49,30.02,10.0,South,16.1,-,N/A,,Clear,180,2012-12-14 09:35:00
3:55 AM,42.8,24.8,49,30.02,10.0,South,16.1,-,N/A,,Clear,190,2012-12-14 09:55:00
4:15 AM,42.8,24.8,49,30.01,10.0,South,16.1,-,N/A,,Clear,180,2012-12-14 10:15:00
4:35 AM,42.8,24.8,49,30.01,10.0,South,17.3,-,N/A,,Clear,180,2012-12-14 10:35:00
4:55 AM,42.8,24.8,49,30.00,10.0,South,15.0,-,N/A,,Clear,180,2012-12-14 10:55:00
5:15 AM,41.0,24.8,53,30.01,10.0,South,13.8,-,N/A,,Clear,180,2012-12-14 11:15:00
5:35 AM,39.2,24.8,56,30.01,10.0,South,11.5,-,N/A,,Clear,170,2012-12-14 11:35:00
5:55 AM,39.2,24.8,56,30.01,10.0,South,12.7,-,N/A,,Clear,170,2012-12-14 11:55:00
6:15 AM,39.2,23.0,52,30.01,10.0,South,12.7,-,N/A,,Clear,170,2012-12-14 12:15:00
6:35 AM,39.2,24.8,56,30.01,10.0,South,11.5,-,N/A,,Clear,170,2012-12-14 12:35:00
6:55 AM,39.2,23.0,52,30.00,10.0,South,11.5,-,N/A,,Clear,170,2012-12-14 12:55:00
7:15 AM,39.2,23.0,52,29.99,10.0,South,12.7,-,N/A,,Clear,170,2012-12-14 13:15:00
7:35 AM,39.2,23.0,52,29.99,10.0,South,15.0,-,N/A,,Clear,170,2012-12-14 13:35:00
7:55 AM,39.2,23.0,52,29.99,10.0,South,15.0,-,N/A,,Clear,170,2012-12-14 13:55:00
8:15 AM,39.2,23.0,52,29.99,10.0,SSE,11.5,-,N/A,,Clear,160,2012-12-14 14:15:00
8:35 AM,39.2,23.0,52,29.99,10.0,SSE,12.7,-,N/A,,Clear,160,2012-12-14 14:35:00
8:55 AM,39.2,24.8,56,30.00,10.0,SSE,13.8,-,N/A,,Clear,160,2012-12-14 14:55:00
9:15 AM,41.0,24.8,53,30.00,10.0,SSE,12.7,-,N/A,,Clear,160,2012-12-14 15:15:00
9:35 AM,42.8,24.8,49,29.99,10.0,South,12.7,-,N/A,,Partly Cloudy,170,2012-12-14 15:35:00
9:55 AM,44.6,24.8,46,29.99,10.0,South,12.7,-,N/A,,Mostly Cloudy,170,2012-12-14 15:55:00
10:15 AM,44.6,26.6,49,29.99,10.0,South,13.8,-,N/A,,Overcast,170,2012-12-14 16:15:00
10:35 AM,46.4,26.6,46,29.98,10.0,South,13.8,-,N/A,,Overcast,170,2012-12-14 16:35:00
10:55 AM,46.4,28.4,50,29.98,10.0,South,13.8,-,N/A,,Overcast,170,2012-12-14 16:55:00
11:15 AM,48.2,28.4,46,29.96,10.0,South,16.1,20.7,N/A,,Overcast,170,2012-12-14 17:15:00
11:35 AM,48.2,28.4,46,29.95,10.0,South,19.6,-,N/A,,Overcast,170,2012-12-14 17:35:00
11:55 AM,50.0,30.2,47,29.94,10.0,South,19.6,23.0,N/A,,Overcast,180,2012-12-14 17:55:00
12:15 PM,51.8,30.2,44,29.92,10.0,South,17.3,23.0,N/A,,Mostly Cloudy,170,2012-12-14 18:15:00
12:35 PM,53.6,33.8,47,29.90,10.0,South,18.4,23.0,N/A,,Mostly Cloudy,170,2012-12-14 18:35:00
12:55 PM,53.6,33.8,47,29.88,10.0,South,17.3,21.9,N/A,,Mostly Cloudy,170,2012-12-14 18:55:00
1:15 PM,55.4,33.8,44,29.86,10.0,South,20.7,29.9,N/A,,Partly Cloudy,170,2012-12-14 19:15:00
1:35 PM,53.6,33.8,47,29.87,10.0,South,19.6,25.3,N/A,,Mostly Cloudy,180,2012-12-14 19:35:00
1:55 PM,53.6,33.8,47,29.85,10.0,South,19.6,24.2,N/A,,Overcast,170,2012-12-14 19:55:00
2:15 PM,51.8,33.8,50,29.84,10.0,South,17.3,21.9,N/A,,Overcast,170,2012-12-14 20:15:00
2:35 PM,51.8,35.6,54,29.82,10.0,SSE,13.8,21.9,N/A,,Overcast,160,2012-12-14 20:35:00
2:55 PM,51.8,35.6,54,29.81,10.0,South,16.1,21.9,N/A,,Overcast,170,2012-12-14 20:55:00
3:15 PM,48.2,37.4,66,29.81,10.0,South,13.8,20.7,N/A,,Overcast,170,2012-12-14 21:15:00
3:35 PM,50.0,37.4,62,29.79,10.0,SSE,18.4,-,N/A,,Overcast,160,2012-12-14 21:35:00
3:55 PM,51.8,39.2,62,29.78,10.0,SSE,17.3,24.2,N/A,,Overcast,160,2012-12-14 21:55:00
4:15 PM,51.8,39.2,62,29.77,10.0,SSE,18.4,29.9,N/A,,Overcast,160,2012-12-14 22:15:00
4:35 PM,51.8,39.2,62,29.76,10.0,SSE,18.4,27.6,N/A,,Overcast,160,2012-12-14 22:35:00
4:55 PM,51.8,39.2,62,29.76,10.0,SSE,18.4,26.5,N/A,,Overcast,160,2012-12-14 22:55:00
5:15 PM,51.8,37.4,58,29.77,10.0,SSE,19.6,25.3,N/A,,Overcast,160,2012-12-14 23:15:00
5:35 PM,50.0,35.6,58,29.77,10.0,SSE,19.6,26.5,N/A,,Overcast,160,2012-12-14 23:35:00
5:55 PM,48.2,37.4,66,29.76,10.0,SSE,20.7,27.6,N/A,,Overcast,160,2012-12-14 23:55:00
6:15 PM,48.2,37.4,66,29.74,10.0,SSE,21.9,29.9,N/A,,Overcast,160,2012-12-15 00:15:00
6:35 PM,48.2,39.2,71,29.74,10.0,SSE,23.0,31.1,N/A,,Overcast,160,2012-12-15 00:35:00
6:55 PM,48.2,37.4,66,29.73,10.0,SSE,18.4,28.8,N/A,,Overcast,150,2012-12-15 00:55:00
7:15 PM,48.2,37.4,66,29.73,10.0,SSE,18.4,24.2,N/A,,Overcast,160,2012-12-15 01:15:00
7:35 PM,46.4,37.4,71,29.70,10.0,SSE,23.0,28.8,0.01,,Overcast,150,2012-12-15 01:35:00
7:55 PM,46.4,39.2,76,29.70,10.0,SSE,17.3,24.2,0.01,,Overcast,150,2012-12-15 01:55:00
8:15 PM,46.4,41.0,81,29.68,10.0,SSE,17.3,27.6,N/A,,Overcast,160,2012-12-15 02:15:00
8:35 PM,46.4,39.2,76,29.66,10.0,SSE,23.0,32.2,0.01,,Overcast,150,2012-12-15 02:35:00
8:55 PM,44.6,39.2,81,29.65,10.0,SSE,23.0,27.6,0.01,,Overcast,150,2012-12-15 02:55:00
9:15 PM,44.6,39.2,81,29.64,6.0,SSE,26.5,31.1,0.08,Thunderstorm,Thunderstorm,150,2012-12-15 03:15:00
9:35 PM,42.8,37.4,81,29.64,4.0,SSE,19.6,-,0.18,,Overcast,160,2012-12-15 03:35:00
9:55 PM,42.8,39.2,87,29.62,10.0,SSE,24.2,29.9,0.18,,Overcast,160,2012-12-15 03:55:00
10:15 PM,42.8,39.2,87,29.58,8.0,SSE,25.3,-,0.02,,Overcast,150,2012-12-15 04:15:00
10:35 PM,44.6,39.2,81,29.54,10.0,SSE,27.6,34.5,0.03,,Overcast,160,2012-12-15 04:35:00
10:55 PM,44.6,41.0,87,29.51,10.0,SSE,25.3,34.5,0.04,,Overcast,150,2012-12-15 04:55:00
11:15 PM,44.6,41.0,87,29.52,10.0,South,26.5,33.4,N/A,,Overcast,170,2012-12-15 05:15:00
11:35 PM,46.4,42.8,87,29.51,10.0,South,25.3,35.7,N/A,,Overcast,170,2012-12-15 05:35:00
11:55 PM,46.4,42.8,87,29.51,10.0,South,25.3,32.2,N/A,,Scattered Clouds,170,2012-12-15 05:55:00